Regional Weather Roundup
Issued by NWS

Home | Current Version | Previous Version | Graphics & Text | Print | Product List | Glossary On
Versions: 1 2 3 4 5 6 7 8 9 10 11 12 13 14 15 16 17 18 19 20 21 22 23 24 25 26 27 28 29 30 31 32 33 34 35 36 37 38 39 40 41 42 43 44 45 46 47 48 49 50
000
ASUS45 KTFX 042210
RWRMT
MONTANA REGIONAL WEATHER ROUNDUP
NATIONAL WEATHER SERVICE GREAT FALLS MT
400 PM MDT SAT JUL 04 2015

NOTE: "FAIR" INDICATES FEW OR NO CLOUDS BELOW 12000 FEET WITH NO
SIGNIFICANT WEATHER AND/OR OBSTRUCTIONS TO VISIBILITY.

MTZ001>007-043-042300-
WEST OF THE DIVIDE

CITY           SKY/WX    TMP DP  RH WIND       PRES   REMARKS
KALISPELL      CLEAR     95  39  14 E8        29.73F HX  91
MISSOULA       SUNNY     96  34  11 NW5       29.78F HX  91
BUTTE          SUNNY     90  31  12 N14G20    29.95F
MULLAN PASS    SUNNY     77  41  27 VRB5      30.03F
DEER LODGE       N/A     91  37  15 SE6       29.91F VSB 3/4
EUREKA           N/A     93  43  17 SW14G20   29.72F
HAMILTON         N/A     93  37  14 SW5       29.81F
LIBBY            N/A     95  43  16 W5G17     29.73S HX  91
PLAINS           N/A     96  47  18 SW9       29.76F HX  92
RONAN            N/A     96  43  16 SW10      29.83F HX  92
THOMPSON FALLS   N/A     98  41  14 SW10      29.79F HX  93
$$

MTZ008-052>055-042300-
SOUTHWEST MONTANA

CITY           SKY/WX    TMP DP  RH WIND       PRES   REMARKS
BOZEMAN        MOSUNNY   90  42  18 NW10      29.88F
DILLON         MOSUNNY   92  35  13 S9        29.92F
W YELLOWSTONE  MOSUNNY   82  27  13 NW10G17   30.06F
THREE FORKS      N/A     94  35  12 SW9       29.87F
$$

MTZ009-010-012-014-046-048-049-054-042300-
EAST SLOPES AND CENTRAL MONTANA

CITY           SKY/WX    TMP DP  RH WIND       PRES   REMARKS
CUT BANK       SUNNY     80  50  34 E6        29.87F
GREAT FALLS    SUNNY     88  49  25 VRB7      29.84F
MALMSTROM AFB  SUNNY     86  49  27 N9        29.84F
HELENA         SUNNY     97  36  12 W13       29.80F HX  92
CONRAD           N/A     83  61  47 N1        29.91F
$$

MTZ011-013-016-021-045-047-050-051-042300-
NORTH CENTRAL MONTANA

CITY           SKY/WX    TMP DP  RH WIND       PRES   REMARKS
HAVRE          SUNNY     87  52  29 SE7G16    29.81F
LEWISTOWN      SUNNY     90  49  24 W12       29.88F
CHINOOK          N/A     86  54  32 N6        29.81S
FORT BENTON      N/A     88  52  29 N3        29.79F
$$

MTZ017>020-022>027-061-062-042300-
NORTHEAST MONTANA

CITY           SKY/WX    TMP DP  RH WIND       PRES   REMARKS
GLASGOW        SUNNY     90  60  36 N20G29    29.72R
JORDAN           N/A     97  48  18 NW21G26   29.72R HX  93
SIDNEY         CLOUDY    84  52  32 SW16      29.66F
WOLF POINT     MOSUNNY   94  63  35 N23G30    29.69R HAZE    HX  95
MALTA            N/A    N/A N/A N/A MISG      29.76
PLENTYWOOD       N/A     79  64  61 N18G26    29.73R
POPLAR           N/A     90  64  43 N15       29.70R HX  91
SCOBEY           N/A     80  57  45 N14       29.78R
$$

MTZ028>42-056>058-042300-
SOUTHCENTRAL AND SOUTHEAST MONTANA

CITY           SKY/WX    TMP DP  RH WIND       PRES   REMARKS
BAKER          MOSUNNY   92  49  22 S8        29.76F
BILLINGS       MOSUNNY   99  35  10 VRB5      29.80F HX  93
LIVINGSTON     MOSUNNY   94  41  16 NW10      29.86F HX  90
MILES CITY     MOSUNNY  101  51  18 SW18G24   29.67F HX  98
EKALAKA          N/A     93  46  19 S1        29.80F
FORSYTH          N/A     97  48  19 NW7       29.70F HX  93
LAUREL           N/A     98  44  15 W8        29.80F HX  94
ROUNDUP          N/A     96  44  16 W10       29.73F HX  92
$$

REGIONAL REPORTS...DAKOTAS

CITY           SKY/WX    TMP DP  RH WIND       PRES   REMARKS
WILLISTON      HVY RAIN  72  61  68 W14G38    29.73R
MINOT          SUNNY     85  66  53 S14G25    29.68F
DICKINSON      PTSUNNY   85  67  54 S9        29.73F
BEACH          FAIR      84  66  54 SE6       29.74F
CROSBY         FAIR      79  73  83 N10       29.71S
BISMARCK       MOSUNNY   89  71  55 S13       29.73F HX  95
GRAND FORKS    MOSUNNY   85  66  53 S16G24    29.74F
FARGO          MOSUNNY   84  67  56 S17G24    29.79F
BUFFALO SD       N/A     93  54  26 VRB3      29.72F HX  91
RAPID CITY     SUNNY     89  66  46 S5        29.83S HX  91
$$

REGIONAL REPORTS...WYOMING/IDAHO/WASHINGTON

CITY           SKY/WX    TMP DP  RH WIND       PRES   REMARKS
GILLETTE       SUNNY     91  46  21 SE3       29.88F
SHERIDAN       SUNNY     94  47  20 S9        29.84F HX  90
BUFFALO WY     SUNNY     90  49  24 S6        29.93F
CODY           SUNNY     91  43  18 NE9       29.89F
YELLOWSTONE LA   N/A     79  33  19 VRB5      30.17F
IDAHO FALLS    MOSUNNY   93  28  10 SE9       29.92F
SALMON         MOSUNNY   93  41  16 N9        29.79F
BOISE          CLOUDY    97  40  14 NW12      29.80F HX  92
SPOKANE        MOSUNNY   94  43  17 SW7G18    29.76F HX  90
$$

REGIONAL REPORTS...ALBERTA

CITY           SKY/WX    TMP DP  RH WIND       PRES   REMARKS
EDMONTON       MOSUNNY   66  43  42 W15       29.95S
CALGARY        TSTM      64  48  55 N24G33    29.93S
LETHBRIDGE     PTSUNNY   77  57  50 E9G23     29.86F
WATERTON GATE    N/A     73  55  53 E6          N/A
CARDSTON         N/A     75  55  50 E6          N/A
MILK RIVER       N/A     77  52  41 NE13G20     N/A
ONEFOUR          N/A     82  45  26 E13G23      N/A
$$

REGIONAL REPORTS...SASKATCHEWAN

CITY           SKY/WX    TMP DP  RH WIND       PRES   REMARKS
SWIFT CURRENT  MOSUNNY   77  52  41 N15G21    29.86S
REGINA         MOSUNNY   75  61  60 N14       29.80S
SASKATOON      SMOKE     75  55  50 N14       29.84R VSB 1
CYPRESS HILLS    N/A     72  46  40 NE5         N/A
VAL MARIE        N/A     82  50  32 N16         N/A
ASSINIBOIA       N/A     70  45  40 NW16G24     N/A
$$


USA.gov is the U.S. government's official web portal to all federal, state and local government web resources and services.